| time (UTC) | temp C | wind direction | speed KPH | gust KPH | rain 1hr cm | rain 24hr cm | rain mn cm | humidity % | barometer mb |
| 20260504191522 | 27 | 76 | 0.0 | 0.0 | 0.00 | 0.00 | 0.00 | 60 | 1014.3 |
| 20260504190017 | 26 | 129 | 0.0 | 0.0 | 0.00 | 0.00 | 0.00 | 59 | 1014.4 |
| 20260504184522 | 27 | 106 | 0.0 | 8.0 | 0.00 | 0.00 | 0.00 | 59 | 1014.4 |
| 20260504183009 | 26 | 101 | 0.0 | 0.0 | 0.00 | 0.00 | 0.00 | 58 | 1014.5 |
| 20260504181517 | 27 | 84 | 0.0 | 0.0 | 0.00 | 0.00 | 0.00 | 59 | 1014.7 |
| 20260504180020 | 26 | 103 | 0.0 | 9.7 | 0.00 | 0.00 | 0.00 | 57 | 1015.0 |
| 20260504174520 | 26 | 165 | 0.0 | 6.4 | 0.00 | 0.00 | 0.00 | 58 | 1015.1 |
| 20260504173024 | 26 | 105 | 3.2 | 12.9 | 0.00 | 0.00 | 0.00 | 56 | 1015.4 |
| 20260504171509 | 26 | 131 | 0.0 | 4.8 | 0.00 | 0.00 | 0.00 | 57 | 1015.4 |
| 20260504081529 | 12 | 109 | 0.0 | 0.0 | 0.00 | 0.05 | 0.00 | 79 | 1016.8 |
| 20260504050004 | 13 | 109 | 0.0 | 0.0 | 0.00 | 0.05 | 0.00 | 81 | 1018.7 |
| 20260504044509 | 13 | 109 | 0.0 | 0.0 | 0.00 | 0.05 | 0.05 | 80 | 1018.8 |
| 20260504043010 | 13 | 109 | 0.0 | 0.0 | 0.00 | 0.05 | 0.05 | 78 | 1018.9 |
| 20260504041513 | 14 | 109 | 0.0 | 0.0 | 0.00 | 0.05 | 0.05 | 77 | 1018.8 |
| 20260504040036 | 15 | 109 | 0.0 | 0.0 | 0.00 | 0.05 | 0.05 | 75 | 1018.7 |
| 20260504034504 | 15 | 109 | 0.0 | 0.0 | 0.00 | 0.05 | 0.05 | 74 | 1018.8 |
| 20260504033005 | 16 | 109 | 0.0 | 0.0 | 0.00 | 0.05 | 0.05 | 72 | 1018.8 |
| 20260504031513 | 16 | 109 | 0.0 | 0.0 | 0.00 | 0.05 | 0.05 | 70 | 1018.7 |
| 20260504030017 | 17 | 109 | 0.0 | 0.0 | 0.00 | 0.05 | 0.05 | 68 | 1018.6 |
| 20260504024523 | 17 | 109 | 0.0 | 0.0 | 0.00 | 0.05 | 0.05 | 67 | 1018.7 |
| 20260504023003 | 17 | 109 | 0.0 | 0.0 | 0.00 | 0.05 | 0.05 | 66 | 1018.6 |
| 20260504021505 | 18 | 109 | 0.0 | 0.0 | 0.00 | 0.05 | 0.05 | 64 | 1018.6 |
| 20260504020010 | 19 | 109 | 0.0 | 0.0 | 0.00 | 0.05 | 0.05 | 61 | 1018.6 |
| 20260504014522 | 19 | 116 | 0.0 | 1.6 | 0.00 | 0.05 | 0.05 | 61 | 1018.6 |
| 20260504013020 | 20 | 111 | 0.0 | 1.6 | 0.00 | 0.05 | 0.05 | 59 | 1018.6 |
| 20260504011506 | 20 | 124 | 0.0 | 3.2 | 0.00 | 0.05 | 0.05 | 57 | 1018.5 |
| 20260504010007 | 20 | 116 | 0.0 | 0.0 | 0.00 | 0.05 | 0.05 | 55 | 1018.5 |
| 20260504004514 | 21 | 116 | 0.0 | 3.2 | 0.00 | 0.05 | 0.05 | 53 | 1018.4 |
| 20260504003017 | 21 | 129 | 0.0 | 3.2 | 0.00 | 0.05 | 0.05 | 50 | 1018.4 |
| 20260504001522 | 22 | 134 | 0.0 | 3.2 | 0.00 | 0.05 | 0.05 | 49 | 1018.4 |
| 20260504000007 | 22 | 127 | 1.6 | 6.4 | 0.00 | 0.05 | 0.05 | 47 | 1018.4 |
| 20260503234508 | 23 | 120 | 0.0 | 8.0 | 0.00 | 0.05 | 0.05 | 46 | 1018.6 |
| 20260503233013 | 23 | 103 | 0.0 | 0.0 | 0.00 | 0.05 | 0.05 | 44 | 1018.7 |
| 20260503231519 | 24 | 113 | 0.0 | 0.0 | 0.00 | 0.05 | 0.05 | 44 | 1018.7 |
| 20260503230025 | 25 | 110 | 0.0 | 0.0 | 0.00 | 0.05 | 0.05 | 43 | 1018.8 |
| 20260503224508 | 25 | 120 | 0.0 | 6.4 | 0.00 | 0.05 | 0.05 | 42 | 1018.8 |
| 20260503223013 | 25 | 67 | 0.0 | 0.0 | 0.00 | 0.05 | 0.05 | 41 | 1019.2 |
| 20260503221517 | 25 | 100 | 0.0 | 11.3 | 0.00 | 0.05 | 0.05 | 41 | 1019.0 |
| 20260503220020 | 26 | 129 | 0.0 | 6.4 | 0.00 | 0.05 | 0.05 | 39 | 1019.1 |
| 20260503214525 | 26 | 92 | 0.0 | 0.0 | 0.00 | 0.05 | 0.05 | 39 | 1019.4 |
| 20260503213008 | 26 | 98 | 0.0 | 4.8 | 0.00 | 0.05 | 0.05 | 39 | 1019.5 |
| 20260503211515 | 26 | 75 | 0.0 | 4.8 | 0.00 | 0.05 | 0.05 | 35 | 1019.7 |
| 20260503210016 | 26 | 18 | 0.0 | 8.0 | 0.00 | 0.05 | 0.05 | 36 | 1019.9 |
| 20260503204527 | 26 | 39 | 0.0 | 0.0 | 0.00 | 0.05 | 0.05 | 36 | 1020.0 |
| 20260503203028 | 26 | 101 | 0.0 | 0.0 | 0.00 | 0.05 | 0.05 | 36 | 1020.3 |
| 20260503201511 | 26 | 42 | 0.0 | 6.4 | 0.00 | 0.05 | 0.05 | 34 | 1020.6 |
| 20260503200014 | 26 | 68 | 0.0 | 4.8 | 0.00 | 0.05 | 0.05 | 37 | 1020.8 |
| 20260503194523 | 26 | 41 | 0.0 | 6.4 | 0.00 | 0.05 | 0.05 | 36 | 1020.8 |
| 20260503193037 | 26 | 82 | 0.0 | 8.0 | 0.00 | 0.05 | 0.05 | 34 | 1021.2 |